SARAL (39086 NORAD) Tracking and Keplerian Element Data

This shows tracking and keplerian element data for the satellite.

Feedback or suggestion? Click here.




ElementValue
Catalog39086
NameSARAL
Epoch Orbit58979
Epoch Day160.20909369
Epoch Year2024
RAAN345.4489
Inclination98.5508
Eccentricity0.0001289
Argument of Perigee350.0438
Mean Anonmoly10.072
Mean Motion14.32424966
Decay Rate2.67E-06
L11 39086U 13009A 24160.20909369 .00000267 00000+0 11499-3 0 9991
L22 39086 98.5508 345.4489 0001289 350.0438 10.0720 14.32424966589792



Live tracking and technical data element details for SARAL (NORAD 39086). SARAL can be tracked NOW for your location showing map with azimuth and elevation plus other details from your city location.







IsCatalogInMostPopularTable: catalog: 39086, numindb: 633
Update: records affected: 1



GetName: 39086 SARAL

Hit Count: updated at: Mon, 17 Jun 2024 23:08:56 GMT